Milwaukee, WI

1:11 PM CDT on September 26, 2016 (GMT -0500)
Gen Mitchell International

Weather History for KMKE - June, 2013

Change the Weather History Date:

Monday, June 17, 2013

  Actual Average Record
Temperature  
Mean Temperature 70 °F 67 °F  
Max Temperature 85 °F 76 °F 94 °F (1994)
Min Temperature 55 °F 58 °F 43 °F (1972)
Degree Days  
Heating Degree Days 0 2  
Month to date heating degree days 76 66  
Since 1 June heating degree days 76 66  
Since 1 July heating degree days 6818 6876  
Cooling Degree Days 5 4  
Month to date cooling degree days 29 49  
Year to date cooling degree days 68 79  
Since 1 June cooling degree days 29 49  
Growing Degree Days 20 (Base 50)    
Moisture  
Dew Point 56 °F    
Average Humidity 65    
Maximum Humidity 93    
Minimum Humidity 37    
Precipitation  
Precipitation 0.12 in 0.13 in 2.14 in (1996)
Month to date precipitation 2.35 2.20  
Year to date precipitation 21.86 14.84  
Snow  
Snow 0.00 in 0.00 in 0.00 in ()
Month to date snowfall 0.0 0.0  
Since 1 June snowfall 0.0 0.0  
Since 1 July snowfall 45.0 46.9  
Snow Depth 0.00 in    
Sea Level Pressure  
Sea Level Pressure 29.90 in    
Wind  
Wind Speed 8 mph (NNE)    
Max Wind Speed 23 mph    
Max Gust Speed 29 mph    
Visibility 10 miles    
Events Rain , Thunderstorm    
T = Trace of Precipitation, MM = Missing Value Source: NWS Daily Summary

Daily Weather History Graph

Daily Weather History Graph

Search for Another Location

Airport or City:

Trip Planner

Search our weather history database for the weather conditions in past years. The results will help you decide how hot, cold, wet, or windy it might be!

Date:

Astronomy

Jun. 17, 2013 Rise Set
Actual Time 5:12 AM CDT 8:33 PM CDT
Civil Twilight 4:36 AM CDT 9:08 PM CDT
Nautical Twilight 3:50 AM CDT 9:54 PM CDT
Astronomical Twilight 2:54 AM CDT 10:51 PM CDT
Moon 2:04 PM CDT (6/17) 12:56 AM CDT (6/17)
Length of Visible Light 16h 31m
Length of Day
15h 21m
First Quarter, 60% of the Moon is Illuminated
Jun 17
First Quarter
Jun 23
Full
Jun 29
Last Quarter
Jul 8
New
Jul 15
First Quarter

Hourly Weather History & Observations

Time (CDT) Temp. Heat Index Dew Point Humidity Pressure Visibility Wind Dir Wind Speed Gust Speed Precip Events Conditions
12:52 AM 68.0 °F - 53.1 °F 59% 29.89 in 10.0 mi Calm Calm - N/A   Partly Cloudy
1:52 AM 68.0 °F - 55.0 °F 63% 29.88 in 10.0 mi Calm Calm - N/A   Partly Cloudy
2:52 AM 64.9 °F - 54.0 °F 68% 29.90 in 10.0 mi NNW 3.5 mph - N/A   Partly Cloudy
3:52 AM 61.0 °F - 54.0 °F 78% 29.90 in 10.0 mi Calm Calm - N/A   Partly Cloudy
4:52 AM 63.0 °F - 53.1 °F 70% 29.89 in 10.0 mi Calm Calm - N/A   Scattered Clouds
5:52 AM 61.0 °F - 55.0 °F 81% 29.89 in 10.0 mi Calm Calm - N/A   Scattered Clouds
6:52 AM 64.0 °F - 55.9 °F 75% 29.88 in 10.0 mi SSW 4.6 mph - N/A   Scattered Clouds
7:52 AM 73.0 °F - 55.0 °F 53% 29.89 in 10.0 mi West 5.8 mph - N/A   Scattered Clouds
8:52 AM 75.9 °F - 53.1 °F 45% 29.90 in 10.0 mi West 8.1 mph - N/A   Scattered Clouds
9:52 AM 79.0 °F - 55.0 °F 44% 29.88 in 10.0 mi WNW 6.9 mph - N/A   Scattered Clouds
10:52 AM 81.0 °F 81.1 °F 57.9 °F 45% 29.87 in 10.0 mi SW 8.1 mph - N/A   Scattered Clouds
11:52 AM 84.0 °F 83.0 °F 55.9 °F 38% 29.87 in 10.0 mi West 6.9 mph - N/A   Partly Cloudy
12:52 PM 75.0 °F - 61.0 °F 62% 29.87 in 10.0 mi ENE 8.1 mph - N/A   Scattered Clouds
1:52 PM 78.1 °F - 62.1 °F 58% 29.87 in 10.0 mi ENE 8.1 mph - N/A   Scattered Clouds
2:52 PM 71.1 °F - 57.9 °F 63% 29.88 in 10.0 mi ENE 8.1 mph - N/A   Mostly Cloudy
3:52 PM 75.9 °F - 60.1 °F 58% 29.87 in 10.0 mi NE 5.8 mph - N/A   Scattered Clouds
4:52 PM 61.0 °F - 55.9 °F 83% 29.91 in 7.0 mi North 21.9 mph 28.8 mph 0.00 in Rain Light Rain
4:57 PM 62.6 °F - 57.2 °F 82% 29.89 in 2.5 mi NE 18.4 mph 28.8 mph 0.05 in Rain , Thunderstorm Light Thunderstorms and Rain
5:04 PM 64.4 °F - 60.8 °F 88% 29.88 in 4.0 mi ENE 6.9 mph 24.2 mph 0.12 in Rain , Thunderstorm Light Thunderstorms and Rain
5:27 PM 59.0 °F - 57.2 °F 94% 29.89 in 10.0 mi NNE 12.7 mph 23.0 mph 0.12 in   Mostly Cloudy
5:40 PM 59.0 °F - 57.2 °F 94% 29.91 in 10.0 mi NNE 19.6 mph 26.5 mph 0.12 in   Mostly Cloudy
5:52 PM 59.0 °F - 55.9 °F 90% 29.92 in 10.0 mi NNE 19.6 mph 27.6 mph 0.12 in   Mostly Cloudy
6:12 PM 57.2 °F - 53.6 °F 88% 29.93 in 10.0 mi NNE 13.8 mph - N/A   Mostly Cloudy
6:52 PM 60.1 °F - 53.1 °F 78% 29.93 in 10.0 mi NNE 15.0 mph 19.6 mph N/A   Mostly Cloudy
7:52 PM 57.9 °F - 53.1 °F 84% 29.93 in 10.0 mi NNE 11.5 mph 23.0 mph N/A   Scattered Clouds
8:52 PM 55.9 °F - 52.0 °F 87% 29.94 in 10.0 mi North 12.7 mph - N/A   Scattered Clouds
9:52 PM 55.9 °F - 53.1 °F 90% 29.98 in 10.0 mi NNE 9.2 mph 19.6 mph N/A   Mostly Cloudy
10:52 PM 55.9 °F - 52.0 °F 87% 29.98 in 10.0 mi North 12.7 mph - N/A   Mostly Cloudy
11:52 PM 57.0 °F - 51.1 °F 81% 29.97 in 10.0 mi NNE 10.4 mph 18.4 mph N/A   Mostly Cloudy